Location: Brantley
(31.5822°N, 86.2569°W)
Time: 02:53:41
(UTC+00:00)

Vanguard 3 - Pass Details

Date: 20 February 2026
Orbit: 507 x 3205 km, 33.4° (Epoch: 7 March)

Event Time Altitude Azimuth Distance (km) Brightness Sun altitude
Rises 21:19:34 0° 251° (WSW) 6,315 12.9 26.0°
Reaches altitude 10° 21:24:22 10° 252° (WSW) 4,913 12.8 25.2°
Maximum altitude 21:37:10 85° 166° (SSE) 1,477 8.9 22.8°
Drops below altitude 10° 21:44:07 10° 78° (ENE) 2,796 9.4 21.5°
Sets 21:46:10 0° 78° (ENE) 3,510 9.8 21.1°
